Temperature
7 7 8 7 7 6 6 6 6 6 5 6 3 2 2 1 0 -1 -1 -2 -2 -3 -4 -4 -5 -5 -5 -6 -6 -7 -7 -8 -8 -9 -10 -10 -11 -11 -12 -12 -12 -12 -12 -11
7 8 7 6 6 5 5 5 5 5 6 4 2 2 1 1 0 -1 -1 -2 -2 -3 -4 -4 -5 -5 -5 -6 -6 -7 -7 -8 -8 -9 -10 -10 -11 -11 -12 -12 -12 -12 -12 -11
7 6 7 8 8 5 5 4 5 6 6 2 0 0 1 1 1 0 -0 -1 -2 -3 -4 -4 -5 -5 -5 -6 -6 -7 -7 -8 -8 -9 -9 -10 -11 -11 -11 -12 -12 -12 -12 -12
5 7 11 12 8 6 6 6 4 4 4 2 3 2 3 3 2 0 -1 -1 -2 -3 -4 -4 -5 -5 -6 -6 -6 -7 -7 -8 -8 -9 -9 -10 -10 -11 -11 -12 -12 -12 -12 -12
5 7 8 9 7 6 6 7 6 4 4 2 0 0 1 2 1 0 -1 -2 -2 -3 -4 -4 -4 -5 -5 -6 -6 -7 -7 -8 -8 -9 -9 -10 -10 -11 -11 -11 -12 -12 -12 -12
5 8 9 11 7 7 7 7 8 6 3 -1 -1 -1 1 3 1 -0 -1 -2 -2 -3 -3 -4 -4 -5 -5 -6 -6 -7 -7 -8 -8 -9 -9 -10 -10 -10 -11 -11 -12 -12 -12 -12
4 5 7 8 6 7 9 10 10 9 6 2 1 2 4 3 1 -0 -1 -2 -2 -3 -3 -4 -4 -5 -5 -6 -6 -7 -7 -8 -8 -9 -9 -9 -10 -10 -10 -11 -11 -11 -12 -12
3 4 8 7 5 6 9 10 10 10 9 7 6 4 3 3 1 -0 -1 -2 -2 -3 -3 -4 -4 -5 -5 -5 -6 -6 -7 -7 -8 -8 -9 -9 -9 -10 -10 -10 -11 -11 -11 -11
6 10 10 9 11 12 11 10 10 9 9 7 5 4 3 2 1 -0 -1 -2 -2 -3 -3 -4 -4 -4 -5 -5 -6 -6 -6 -7 -7 -7 -8 -9 -9 -9 -10 -10 -10 -11 -11 -11
4 6 9 10 11 11 11 10 10 9 8 7 6 5 3 2 1 -0 -1 -2 -2 -3 -3 -4 -4 -4 -5 -5 -5 -6 -6 -6 -7 -7 -7 -8 -8 -9 -9 -10 -11 -11 -11 -11
4 6 9 12 14 14 12 10 9 8 7 6 5 4 3 2 1 -0 -1 -2 -2 -3 -3 -3 -4 -4 -5 -5 -5 -5 -6 -6 -6 -7 -7 -7 -8 -8 -9 -9 -11 -11 -11 -11
10 13 11 14 15 14 12 11 10 8 6 5 5 4 3 2 1 -0 -1 -2 -2 -3 -3 -3 -4 -4 -4 -5 -5 -5 -6 -6 -6 -6 -7 -7 -7 -7 -8 -9 -9 -10 -10 -11
16 16 15 15 14 13 12 11 9 8 7 6 5 4 3 2 1 -0 -1 -2 -2 -3 -3 -3 -4 -4 -4 -5 -5 -5 -5 -6 -6 -6 -7 -7 -7 -7 -7 -7 -8 -9 -10 -10
15 14 12 13 13 12 11 10 8 7 6 5 4 3 2 2 1 -0 -1 -1 -2 -3 -3 -3 -3 -4 -4 -4 -5 -5 -5 -6 -6 -6 -6 -7 -7 -7 -8 -8 -8 -8 -9 -10
15 14 13 13 12 11 10 9 7 6 5 4 3 3 2 2 1 0 -1 -2 -2 -3 -3 -3 -3 -4 -4 -4 -4 -5 -5 -5 -5 -6 -6 -6 -7 -7 -7 -8 -8 -8 -9 -9
16 14 12 11 11 10 9 9 8 7 5 4 4 3 3 2 1 -0 -1 -2 -2 -2 -3 -3 -3 -4 -4 -4 -4 -5 -5 -5 -5 -6 -6 -6 -6 -7 -7 -7 -8 -8 -9 -9
14 13 13 13 13 12 11 10 9 8 6 5 4 3 2 1 0 -1 -1 -2 -2 -2 -3 -3 -3 -4 -4 -4 -4 -4 -5 -5 -5 -6 -6 -6 -6 -7 -7 -7 -8 -8 -9 -9
17 16 15 14 14 13 12 10 9 8 7 6 4 3 2 1 1 1 -0 -1 -2 -2 -3 -3 -3 -3 -4 -4 -4 -4 -5 -5 -5 -6 -6 -6 -6 -7 -7 -7 -8 -8 -8 -9
18 17 16 15 13 12 11 11 10 8 7 5 4 3 3 2 1 0 -1 -2 -2 -2 -2 -3 -3 -3 -4 -4 -4 -4 -5 -5 -5 -6 -6 -6 -6 -7 -7 -7 -8 -8 -9 -9
19 19 17 16 13 12 11 10 9 8 7 5 4 3 2 2 1 0 -1 -1 -1 -1 -2 -3 -3 -3 -4 -4 -4 -4 -5 -5 -5 -6 -6 -6 -7 -7 -7 -7 -8 -8 -9 -9
20 19 18 17 15 13 11 10 9 8 7 5 4 3 3 2 1 0 -1 -1 -1 -2 -3 -3 -3 -3 -4 -4 -4 -5 -5 -5 -6 -6 -6 -6 -7 -7 -7 -8 -8 -8 -9 -9
20 19 18 17 15 14 12 10 9 8 7 6 4 3 3 2 1 0 -0 -0 -1 -2 -2 -3 -3 -3 -4 -4 -4 -5 -5 -5 -6 -6 -6 -7 -7 -7 -7 -8 -8 -8 -9 -9
20 19 19 17 16 14 12 10 9 8 7 6 5 4 3 3 2 1 1 0 -1 -2 -2 -3 -3 -3 -4 -4 -4 -5 -5 -5 -6 -6 -7 -7 -7 -7 -8 -8 -8 -9 -9 -9
19 19 18 16 14 12 11 11 9 8 7 6 5 4 3 3 2 1 1 0 -1 -2 -2 -2 -3 -3 -4 -4 -4 -5 -5 -5 -6 -6 -7 -7 -7 -8 -8 -8 -8 -9 -9 -9
18 18 17 15 14 14 13 11 9 8 7 6 5 4 3 3 2 2 1 -0 -1 -2 -2 -3 -3 -3 -4 -4 -4 -5 -5 -6 -6 -6 -7 -7 -7 -8 -8 -8 -9 -9 -9 -10
16 16 16 15 14 14 13 11 9 8 7 6 5 4 3 2 2 1 0 -0 -1 -2 -2 -3 -3 -3 -4 -4 -4 -5 -5 -6 -6 -6 -7 -7 -8 -8 -8 -8 -9 -9 -9 -10
13 13 12 12 12 12 11 11 10 9 8 7 6 5 4 3 2 1 1 -0 -1 -2 -2 -2 -3 -3 -4 -4 -4 -5 -5 -6 -6 -7 -7 -7 -8 -8 -8 -9 -9 -9 -9 -10
Wind_Speed
8 6 4 7 9 9 10 9 10 11 10 13 8 10 10 9 9 8 7 6 5 4 3 4 5 6 6 7 7 8 8 9 9 10 10 10 11 11 12 12 14 14 15 16
6 2 3 7 11 10 10 8 10 11 16 8 1 4 8 10 11 9 8 7 6 5 4 5 5 6 6 7 8 7 8 9 9 10 10 10 11 11 12 12 13 14 15 16
6 6 7 9 8 10 8 10 10 11 10 4 4 8 11 13 12 11 9 7 7 6 5 5 5 5 6 7 7 8 8 8 9 9 10 11 12 11 12 11 12 13 14 15
4 8 6 7 2 8 8 9 11 10 7 7 6 4 5 8 11 10 9 8 7 5 5 4 3 4 5 6 7 7 8 8 9 9 10 10 10 10 10 9 11 10 12 14
1 5 10 10 4 6 6 10 9 12 9 4 5 3 3 7 9 10 9 7 6 5 4 3 4 4 5 6 6 7 8 8 9 9 10 10 10 10 9 8 10 10 11 12
3 2 7 7 3 4 3 8 7 9 8 9 9 3 6 10 10 9 8 6 6 5 3 4 4 3 4 6 7 7 8 9 9 9 9 10 10 9 7 8 9 11 12 12
5 7 11 7 5 6 2 8 4 9 10 14 13 7 3 11 10 9 8 7 6 5 4 4 3 3 5 6 7 8 8 9 9 9 9 9 8 7 9 10 11 10 11 11
6 5 10 7 10 10 11 2 6 8 9 12 9 5 8 11 11 11 9 7 7 5 5 4 3 3 5 7 7 7 8 9 9 9 9 9 9 9 9 9 10 10 9 10
12 11 5 11 11 8 5 7 7 8 9 12 9 9 10 10 10 10 9 8 6 6 5 4 4 4 6 6 7 8 8 9 9 10 8 8 8 9 9 8 8 10 8 9
8 14 11 12 12 9 9 8 8 9 10 14 11 12 12 11 11 10 9 8 6 6 5 5 5 5 6 7 6 7 9 9 9 9 9 8 7 7 8 8 9 9 8 9
9 12 10 10 13 13 10 8 7 8 10 14 13 12 13 12 12 11 9 7 6 6 6 6 5 5 6 5 5 7 8 8 9 9 9 9 9 7 9 8 11 12 8 8
12 11 9 8 6 10 12 12 13 12 10 9 11 14 14 12 11 10 9 8 7 7 7 6 5 6 6 5 5 6 7 8 7 8 8 9 9 10 14 14 18 18 16 16
10 6 8 5 3 8 11 12 13 14 14 12 10 12 13 10 10 10 9 9 9 8 7 6 5 6 6 5 5 5 7 8 7 8 8 9 9 10 12 14 17 17 18 20
10 5 6 8 8 9 9 9 11 10 9 11 11 10 11 9 9 11 12 11 9 7 6 6 6 6 6 4 5 6 6 8 8 6 6 7 7 8 9 11 12 12 15 19
15 15 11 5 5 7 8 9 10 10 10 9 9 11 13 13 13 13 10 9 7 7 7 6 7 7 5 4 4 5 6 5 6 5 5 6 7 7 8 10 10 11 11 13
7 9 9 8 10 11 10 12 14 16 14 13 12 13 13 12 11 10 9 10 9 9 9 8 8 6 4 4 4 4 4 9 8 5 5 6 6 7 8 9 10 10 11 11
8 10 12 12 15 16 17 17 18 17 16 16 16 14 12 10 9 10 10 11 9 8 7 8 7 5 4 4 4 4 4 5 8 6 5 5 6 6 7 8 9 10 10 13
19 16 14 12 13 18 18 17 15 16 16 16 14 14 15 15 15 14 11 9 7 7 8 8 7 6 5 5 4 3 3 3 4 4 5 5 5 5 6 7 8 10 10 12
19 17 15 14 13 15 17 18 18 16 14 15 17 18 17 15 13 10 10 10 11 11 9 9 12 9 6 6 5 3 3 3 4 4 4 7 7 6 6 7 8 9 10 11
16 15 14 13 12 12 14 14 15 15 15 16 16 15 14 13 12 11 11 12 12 8 6 8 9 7 7 6 6 3 3 3 4 4 4 4 5 6 6 7 8 9 9 10
15 14 15 15 15 13 13 15 17 17 16 17 18 18 17 14 13 12 11 11 10 9 8 11 8 7 6 6 6 4 4 3 3 3 4 4 5 6 6 7 8 9 9 10
15 16 18 16 15 14 13 14 15 16 17 17 16 14 13 13 14 12 11 9 7 13 11 8 7 10 10 9 5 5 4 4 3 3 3 4 4 5 6 7 7 8 9 10
16 17 17 18 17 13 12 14 16 17 18 19 18 18 17 15 13 12 12 11 8 13 11 8 12 15 15 8 6 6 5 5 4 4 4 4 4 4 5 7 7 8 8 9
15 15 14 12 12 13 16 16 15 14 14 14 15 16 15 12 11 11 5 12 19 17 11 13 18 17 15 7 6 6 6 5 5 4 4 4 4 4 5 6 6 7 8 10
11 11 13 16 17 16 16 14 14 12 13 11 11 12 12 10 10 11 10 10 17 18 10 14 19 18 10 7 7 7 6 6 6 5 4 4 4 4 5 5 6 7 8 9
10 11 13 15 13 11 12 14 13 13 13 12 11 11 11 8 8 8 10 11 12 16 12 9 10 12 8 8 8 8 7 6 6 5 5 4 5 5 5 5 7 6 7 9
7 7 7 8 8 11 13 14 15 15 15 14 12 12 12 11 11 10 11 11 11 11 10 9 9 8 8 8 8 7 6 6 6 5 5 4 4 4 5 6 6 8 9 11
Wind_Direction
260 265 240 240 228 198 199 205 217 246 251 269 242 216 198 178 169 173 187 196 205 224 255 280 294 300 305 311 317 324 325 323 321 320 321 323 326 327 328 331 334 332 333 334
295 235 268 266 244 219 222 224 238 265 275 273 279 146 161 173 179 190 200 204 209 222 244 267 281 294 307 312 316 320 318 316 318 324 326 327 327 328 330 332 332 334 336 337
291 308 320 284 241 189 209 213 202 228 247 176 192 192 189 188 190 196 198 200 206 218 235 253 268 284 298 302 309 315 313 315 319 322 325 326 328 331 331 329 330 333 334 338
310 351 300 255 139 178 216 244 219 239 247 201 209 186 188 183 187 193 191 192 199 209 228 245 260 283 295 301 310 312 312 314 317 321 321 321 323 326 325 323 328 328 329 334
35 313 283 294 222 180 207 278 222 226 238 149 109 73 270 205 187 187 185 183 190 199 211 234 264 287 305 309 313 313 313 315 316 317 317 319 321 321 319 320 322 324 329 332
137 251 260 260 159 161 100 286 236 194 186 157 143 181 248 185 171 168 166 166 177 186 201 236 260 292 304 306 310 309 311 311 310 311 313 313 312 313 313 317 321 327 328 329
185 234 265 250 151 141 177 256 206 181 175 170 187 202 177 151 155 159 163 169 171 180 207 234 258 288 294 298 297 300 306 308 308 309 308 304 308 310 313 320 322 320 318 319
169 213 260 189 147 187 218 191 178 184 178 182 185 137 142 154 158 162 166 172 175 188 219 239 250 260 284 289 291 303 309 310 308 307 308 319 313 312 313 314 316 314 313 316
195 222 246 179 204 218 182 194 199 190 185 168 161 168 164 167 168 171 174 179 180 192 220 248 246 240 270 281 300 311 314 312 310 311 308 309 309 311 315 314 314 315 314 318
247 262 249 226 235 232 203 208 200 183 169 168 172 172 170 172 177 179 181 183 181 189 216 242 247 251 256 279 298 309 311 311 313 314 314 314 315 316 317 315 313 314 321 322
254 271 286 259 229 224 206 195 174 168 173 176 168 171 176 179 183 184 185 182 182 195 216 234 247 261 271 281 298 308 310 311 316 318 316 319 323 317 318 310 317 329 328 320
235 228 211 243 226 190 187 194 184 171 171 177 176 176 176 182 181 179 180 179 188 202 219 231 240 259 270 277 288 301 313 318 318 318 324 326 324 324 328 332 333 338 338 338
226 219 206 243 210 185 193 193 182 180 176 177 180 174 173 173 177 175 180 186 198 206 214 222 235 255 265 272 285 289 299 310 312 320 324 326 328 329 328 332 336 341 343 342
222 184 237 224 216 198 188 175 170 174 175 170 165 165 167 162 166 181 192 196 196 199 210 217 231 249 256 263 279 288 295 307 314 309 316 319 321 323 326 329 331 332 337 340
223 212 222 199 171 165 158 150 161 175 171 166 163 167 170 174 184 192 191 183 182 198 214 217 231 246 246 252 272 288 301 300 303 308 316 318 319 324 328 329 328 328 330 336
213 207 208 199 195 180 171 179 186 189 184 178 178 182 183 182 180 178 177 177 183 205 212 214 228 236 231 241 269 284 293 315 326 326 324 323 322 328 332 331 331 331 332 332
184 210 205 213 208 199 198 196 196 191 185 186 188 179 168 165 171 184 190 192 198 208 208 212 223 224 224 233 249 266 283 306 326 328 317 314 315 323 326 327 328 330 329 330
217 220 201 198 201 203 205 202 197 189 188 189 172 165 173 182 192 196 191 182 192 220 227 220 218 218 224 229 234 244 267 285 299 303 307 313 320 323 323 322 325 328 328 331
224 225 213 204 195 192 196 197 197 190 180 169 171 180 188 192 191 181 171 177 196 220 228 211 216 212 215 226 224 214 245 276 293 301 304 324 333 323 323 324 325 326 328 333
222 219 210 203 192 189 193 189 183 181 178 174 176 179 186 191 181 174 177 197 210 208 190 188 198 201 205 221 218 200 225 255 279 297 308 316 319 322 324 326 327 327 329 332
217 210 204 202 198 193 187 181 180 182 178 177 181 187 190 186 179 176 183 211 218 199 194 199 193 196 199 208 210 195 213 238 260 279 298 309 315 319 322 325 327 328 329 331
211 207 206 199 193 193 186 179 180 177 176 182 187 182 177 177 181 189 203 210 190 190 192 198 194 202 203 204 188 193 210 226 243 258 275 290 301 311 317 320 322 324 326 325
210 206 201 195 193 184 170 177 180 179 182 185 186 185 186 185 184 189 209 211 191 195 189 195 201 207 209 197 185 196 207 219 232 244 258 272 282 292 302 310 314 317 317 319
205 198 192 176 160 165 182 187 183 184 185 186 189 187 181 179 191 203 191 181 188 196 195 199 203 206 205 181 184 195 205 215 225 235 246 260 270 280 289 299 305 309 311 315
195 181 169 170 182 193 190 174 172 175 177 185 187 186 187 186 185 190 183 181 188 191 193 202 204 206 195 177 189 197 203 212 217 221 230 248 263 276 285 293 300 306 309 311
190 191 193 196 194 182 172 172 179 182 183 187 190 189 189 184 169 163 175 183 189 191 188 192 198 203 186 185 192 198 203 218 235 232 224 238 253 265 278 289 296 298 303 306
187 186 184 189 189 178 175 179 182 184 186 187 185 184 183 181 180 177 176 182 188 191 186 187 190 189 186 189 193 197 200 204 209 215 221 229 241 253 266 279 288 294 299 303
Height
1593 1590 1590 1588 1587 1589 1592 1590 1590 1578 1574 1560 1560 1561 1562 1565 1568 1570 1572 1573 1573 1573 1571 1570 1567 1565 1561 1557 1553 1548 1543 1537 1531 1525 1520 1514 1507 1501 1495 1489 1482 1476 1469 1461
1592 1587 1588 1587 1582 1584 1585 1584 1581 1575 1567 1555 1556 1556 1558 1561 1564 1566 1568 1570 1570 1570 1569 1567 1565 1562 1559 1555 1551 1546 1541 1536 1530 1524 1519 1513 1507 1501 1495 1488 1482 1476 1469 1462
1594 1590 1585 1578 1569 1575 1574 1572 1570 1567 1557 1554 1555 1554 1555 1557 1560 1562 1565 1566 1567 1567 1566 1564 1562 1560 1556 1553 1549 1545 1540 1535 1529 1523 1518 1512 1506 1500 1494 1488 1482 1476 1470 1464
1602 1592 1580 1562 1562 1563 1564 1560 1559 1554 1551 1551 1551 1552 1553 1555 1557 1559 1562 1563 1564 1564 1563 1562 1560 1557 1555 1551 1548 1543 1539 1534 1528 1522 1517 1511 1505 1500 1494 1488 1482 1476 1471 1465
1605 1598 1584 1564 1560 1562 1563 1556 1547 1548 1546 1549 1549 1551 1551 1552 1554 1557 1559 1560 1561 1561 1560 1559 1558 1555 1553 1550 1546 1542 1537 1532 1527 1521 1516 1510 1504 1499 1493 1488 1482 1477 1472 1466
1606 1596 1584 1558 1558 1557 1560 1556 1541 1541 1542 1545 1549 1554 1547 1547 1550 1553 1555 1557 1557 1558 1558 1557 1555 1553 1551 1548 1544 1540 1535 1530 1525 1520 1515 1510 1504 1499 1493 1488 1482 1477 1472 1467
1604 1600 1575 1554 1555 1558 1562 1547 1537 1536 1537 1539 1541 1542 1543 1544 1547 1550 1552 1554 1555 1555 1555 1554 1553 1551 1549 1546 1542 1538 1534 1529 1525 1520 1514 1509 1504 1499 1493 1488 1482 1477 1472 1467
1602 1600 1572 1549 1552 1552 1542 1533 1533 1533 1533 1534 1536 1538 1540 1542 1544 1547 1549 1550 1552 1552 1552 1552 1551 1549 1547 1544 1541 1537 1533 1528 1524 1519 1514 1508 1503 1498 1492 1487 1481 1476 1471 1466
1572 1557 1540 1538 1534 1532 1531 1530 1530 1530 1530 1531 1533 1535 1537 1539 1542 1544 1546 1548 1549 1549 1549 1549 1548 1547 1545 1542 1539 1535 1531 1527 1522 1518 1513 1507 1501 1496 1490 1485 1480 1474 1470 1465
1559 1540 1532 1530 1529 1527 1527 1526 1526 1526 1527 1528 1529 1532 1534 1536 1539 1541 1543 1545 1546 1546 1547 1546 1546 1544 1542 1540 1537 1533 1530 1525 1521 1516 1511 1506 1500 1495 1489 1483 1478 1474 1470 1465
1549 1533 1526 1520 1519 1519 1520 1520 1521 1522 1523 1525 1527 1528 1531 1533 1535 1537 1540 1542 1543 1543 1544 1544 1543 1542 1540 1538 1535 1532 1528 1524 1520 1515 1509 1504 1499 1494 1488 1483 1479 1475 1469 1465
1531 1519 1519 1515 1514 1514 1514 1514 1515 1517 1518 1520 1523 1525 1527 1529 1532 1534 1536 1538 1539 1540 1541 1541 1540 1539 1538 1536 1533 1530 1526 1522 1518 1513 1508 1503 1498 1493 1490 1484 1479 1474 1469 1465
1513 1512 1511 1509 1509 1509 1509 1509 1510 1512 1514 1516 1518 1521 1523 1525 1528 1530 1533 1534 1536 1537 1537 1537 1537 1536 1535 1533 1531 1528 1525 1521 1517 1512 1507 1502 1496 1491 1485 1482 1479 1473 1468 1463
1508 1507 1505 1502 1503 1504 1504 1504 1506 1508 1510 1512 1515 1517 1519 1521 1524 1526 1528 1531 1533 1534 1534 1534 1534 1534 1533 1531 1529 1526 1524 1520 1516 1512 1507 1502 1497 1491 1485 1479 1474 1470 1466 1462
1498 1498 1497 1496 1496 1497 1497 1498 1499 1501 1503 1506 1509 1511 1514 1516 1519 1522 1525 1527 1528 1530 1530 1531 1531 1531 1530 1528 1527 1525 1522 1519 1515 1511 1507 1502 1497 1492 1486 1480 1475 1469 1464 1460
1489 1489 1488 1487 1487 1489 1490 1490 1491 1493 1496 1499 1502 1505 1509 1512 1515 1518 1520 1522 1524 1525 1527 1527 1528 1527 1527 1526 1524 1522 1520 1517 1514 1510 1506 1502 1497 1491 1486 1481 1475 1469 1463 1458
1481 1478 1477 1478 1478 1479 1480 1481 1483 1486 1489 1492 1496 1501 1504 1507 1510 1512 1515 1517 1519 1521 1523 1523 1524 1524 1523 1523 1522 1520 1518 1516 1513 1509 1505 1501 1496 1491 1486 1481 1475 1470 1464 1459
1468 1468 1469 1469 1470 1471 1472 1474 1477 1479 1482 1487 1492 1495 1497 1500 1502 1506 1510 1512 1514 1516 1518 1519 1520 1520 1520 1519 1519 1517 1516 1514 1511 1508 1505 1501 1496 1492 1487 1481 1476 1470 1464 1459
1458 1458 1458 1459 1461 1463 1465 1466 1469 1472 1476 1481 1484 1487 1490 1494 1498 1502 1505 1507 1508 1510 1513 1515 1516 1516 1516 1516 1515 1514 1513 1511 1509 1507 1504 1500 1496 1492 1487 1481 1476 1470 1464 1459
1450 1450 1450 1451 1452 1454 1456 1459 1462 1465 1468 1473 1477 1481 1484 1488 1492 1495 1498 1500 1502 1506 1509 1510 1511 1512 1512 1512 1512 1511 1510 1509 1507 1505 1502 1499 1495 1491 1486 1481 1476 1470 1464 1459
1443 1442 1442 1442 1443 1445 1448 1451 1454 1457 1460 1465 1468 1472 1477 1482 1485 1488 1491 1493 1497 1501 1503 1504 1506 1507 1508 1508 1508 1508 1507 1506 1505 1503 1500 1497 1494 1490 1485 1481 1475 1470 1464 1459
1434 1434 1433 1433 1435 1437 1440 1443 1446 1450 1453 1457 1461 1466 1471 1474 1478 1481 1484 1488 1492 1495 1497 1499 1500 1502 1503 1503 1504 1504 1503 1503 1502 1500 1498 1495 1492 1488 1484 1480 1475 1469 1464 1458
1424 1423 1422 1423 1425 1428 1431 1435 1438 1441 1445 1449 1453 1457 1462 1466 1470 1473 1476 1481 1485 1488 1490 1493 1495 1497 1498 1499 1499 1500 1500 1499 1498 1497 1495 1493 1490 1487 1483 1478 1474 1468 1463 1457
1410 1410 1410 1412 1416 1419 1421 1424 1429 1433 1438 1443 1447 1452 1456 1460 1463 1467 1471 1475 1479 1482 1484 1487 1489 1491 1492 1493 1494 1495 1495 1495 1495 1494 1492 1490 1488 1484 1481 1477 1472 1467 1462 1457
1399 1399 1400 1402 1404 1407 1411 1417 1421 1426 1430 1434 1439 1444 1449 1453 1457 1461 1465 1468 1472 1475 1477 1481 1483 1485 1486 1488 1489 1490 1490 1491 1490 1490 1489 1487 1485 1482 1479 1475 1470 1465 1460 1455
1389 1389 1390 1392 1395 1399 1402 1407 1411 1415 1420 1425 1430 1435 1440 1445 1450 1454 1458 1461 1465 1467 1471 1474 1476 1478 1480 1482 1483 1485 1485 1486 1486 1486 1485 1484 1482 1479 1476 1472 1468 1464 1459 1454
1380 1381 1382 1384 1387 1390 1393 1398 1402 1406 1410 1415 1420 1426 1432 1437 1441 1445 1449 1453 1456 1460 1463 1467 1469 1472 1474 1476 1478 1479 1480 1481 1481 1481 1480 1479 1478 1476 1473 1470 1466 1462 1457 1452